Satellite-Ground Cal/Val Site Overpasses Predictions

Prediction of Satellite NPP Overpassing Cal/Val Site: Antarctic Dome C

Ground Cal/Val Site Location: Latitude: -75.10, Longitude: 123.35; Satellite-Ground Site NADIR distance within 100 km.

Table of predicted overpasses for the next 14.0 days since TLE Epoch: 7/12/2019
Interval Starting Time Ending Time Minimum Distance Time Minimum Distance (km)
1 07/14/2019 14:55:11 07/14/2019 14:55:39 07/14/2019 14:55:25 23.20
2 07/15/2019 14:36:29 07/15/2019 14:36:44 07/15/2019 14:36:36 83.87
3 07/16/2019 07:38:01 07/16/2019 07:38:28 07/16/2019 07:38:15 36.11
4 07/17/2019 07:19:16 07/17/2019 07:19:35 07/17/2019 07:19:26 73.88
5 07/19/2019 15:01:32 07/19/2019 15:01:55 07/19/2019 15:01:43 60.33
6 07/20/2019 14:42:41 07/20/2019 14:43:06 07/20/2019 14:42:53 48.88
7 07/21/2019 07:44:22 07/21/2019 07:44:43 07/21/2019 07:44:33 71.36
8 07/22/2019 07:25:30 07/22/2019 07:25:58 07/22/2019 07:25:44 36.49
9 07/24/2019 15:07:59 07/24/2019 15:08:04 07/24/2019 15:08:01 98.17


NCC Satellite Cal/Val Overpasses Prediction Service
